CAPE
0 0 0 0 0 0 1 56 174 60 247 15 36 39 24 85 110 147 165 267 431 928 1296 1480 1684 1833 1784 1865 2076 2282 2399 2626
0 0 0 0 0 0 0 9 42 149 70 120 88 66 128 91 119 172 207 173 311 832 1192 1423 1603 1714 1792 1837 2002 2251 2144 2175
0 0 0 0 0 0 0 0 85 203 142 157 149 82 86 81 64 229 377 521 559 812 1160 1427 1713 1918 2011 2068 2054 2287 2351 2331
0 0 0 0 0 0 0 0 54 105 91 21 13 2 25 61 63 704 689 666 790 1064 1250 1594 1826 1915 2053 2049 2214 2479 2398 2458
0 0 0 0 0 0 0 15 146 193 124 65 61 0 0 9 7 267 876 891 875 1190 1453 1807 2156 2340 2189 2407 2455 2253 2286 2338
0 0 0 0 0 0 0 13 92 147 130 90 22 0 0 0 0 49 592 1538 1014 1201 1561 2125 2487 2771 2823 2945 2647 2333 2337 2252
0 0 1 4 0 0 0 0 56 99 120 91 76 41 6 0 1 96 154 1212 1367 1439 2011 2726 2955 3192 3414 3125 2748 2557 2553 2466
0 0 0 0 5 0 0 0 0 24 88 89 138 128 105 88 375 222 210 489 1516 1867 2313 2783 3077 3640 3661 3066 2861 2819 2750 2550
2 0 9 1 0 0 0 0 0 0 7 17 10 23 621 1179 1204 1223 863 548 1139 2153 2334 2604 3117 3867 3703 3150 3083 2947 2966 3090
200 58 79 12 2 0 0 0 0 0 7 33 28 771 1722 1980 2021 2033 1918 1710 1021 1144 2333 2608 2926 3654 3715 3224 3617 3380 3055 3332
590 345 82 67 31 10 2 0 0 0 0 25 175 625 1891 1751 2089 2333 2322 1383 994 785 1598 2593 3038 3556 3723 3390 3309 3016 2882 3340
801 439 334 76 90 26 8 10 0 0 0 54 392 517 2048 1949 1812 1688 2033 2223 1427 1012 1909 2724 3151 3370 3728 3526 3314 3185 3373 3525
510 498 394 106 167 82 173 0 0 0 104 381 753 2318 2216 1780 1646 1490 1428 1659 1849 1743 1477 1489 2250 2882 3657 3857 3554 3543 3781 3490
449 407 267 95 545 250 395 961 283 486 1150 1472 2191 1939 1789 1662 1559 1496 1484 1377 1568 1898 2114 2302 2192 2542 3141 3957 4306 4494 3953 4183
13 384 516 831 1046 1465 1367 1615 1769 1800 1861 1934 1793 1670 1540 1472 1395 1399 1473 1588 1527 1735 2350 2601 2866 2809 2821 3336 3711 3872 3828 3449
0 18 322 1478 1559 1434 1461 1547 1493 1478 1348 1291 1284 1108 1047 959 890 823 878 1237 1577 1568 1774 1754 1302 1382 2369 2814 2833 3247 3147 2840
0 74 741 1230 1502 1542 1430 1352 1337 1192 1135 1112 880 863 746 802 1045 971 903 781 1331 1373 1780 1948 1713 1767 1709 1258 1704 2441 2013 1979
1044 841 1199 1472 1379 1037 1007 1007 945 938 864 722 718 1016 994 1302 1301 1288 1265 1293 1057 1101 1113 1125 1244 1495 1464 1375 882 720 783 426
786 932 906 1140 1147 1035 984 888 715 644 707 1015 979 1039 1234 1414 1410 1058 1540 1438 1284 1174 949 866 925 1145 963 1011 1137 1182 1347 1375
CIN
0 0 0 0 0 0 0 0 0 -22 -1 -29 -14 -5 -13 0 -1 0 0 -1 -1 -8 -23 -29 -61 -81 -89 -90 -81 -53 -28 -6
0 0 0 0 0 0 0 0 -6 -1 -1 0 -1 -2 -4 -2 0 -1 -1 -4 -4 -6 -15 -38 -49 -65 -86 -106 -83 -48 -28 -15
0 0 0 0 0 0 0 0 -4 0 0 0 -2 -3 -1 -14 -7 0 -2 -9 -10 -7 -20 -41 -48 -52 -70 -94 -81 -26 -6 -1
0 0 0 0 0 0 0 -1 -1 0 -4 -42 -39 -2 -30 -31 -27 -7 -10 -14 -24 -22 -29 -47 -58 -64 -79 -101 -70 -22 -15 -1
0 0 0 0 0 0 0 0 -1 0 -1 -5 -3 0 0 -24 -33 -3 -14 -27 -16 -24 -49 -67 -77 -87 -90 -104 -74 -56 -37 -19
0 0 0 0 0 0 0 0 0 0 0 -5 -13 0 0 0 0 -11 -10 -27 -18 -23 -43 -72 -90 -99 -90 -76 -73 -70 -50 -32
0 0 0 0 0 0 0 0 -1 0 -2 -1 -1 -2 -3 0 -6 -49 -27 -13 -22 -32 -56 -90 -105 -112 -83 -74 -92 -72 -45 -21
0 0 0 0 0 0 0 0 0 -1 -2 -7 0 -10 -16 -24 -12 -24 -32 -22 -19 -45 -61 -90 -103 -94 -77 -101 -108 -90 -64 -57
0 0 0 0 0 0 0 0 0 0 -1 -1 -1 -12 -3 -14 -20 -38 -51 -53 -28 -37 -63 -86 -98 -76 -73 -96 -102 -106 -84 -27
0 -1 0 0 0 0 0 0 0 0 0 -4 -6 -2 -12 -39 -38 -62 -79 -83 -92 -54 -46 -83 -87 -53 -39 -84 -55 -64 -75 -30
0 0 -1 0 0 0 0 0 0 0 0 0 -1 -1 -16 -71 -83 -112 -128 -141 -144 -80 -51 -73 -69 -34 -24 -47 -59 -82 -87 -38
-1 -1 -1 -1 -2 -1 -1 0 0 0 0 -1 -1 0 -8 -80 -100 -142 -147 -159 -163 -163 -104 -77 -49 -13 -2 -14 -27 -52 -31 -16
-1 0 -1 -2 -2 -1 0 -1 0 0 -2 -2 -1 -9 -44 -94 -133 -144 -158 -157 -125 -131 -134 -134 -94 -27 0 -1 -2 -8 -1 -5
0 0 0 -4 0 0 -3 -2 0 -1 -2 -1 -21 -45 -73 -103 -115 -126 -129 -148 -114 -92 -77 -85 -92 -61 -1 -1 -2 0 0 0
-6 -100 -43 -14 -10 -33 -12 -10 -15 -21 -15 -35 -39 -49 -65 -86 -96 -121 -115 -117 -127 -103 -80 -72 -59 -47 -28 -2 -12 -5 -3 -3
0 -6 -25 -22 -40 -29 -22 -43 -46 -55 -85 -73 -50 -75 -86 -97 -103 -144 -161 -150 -125 -132 -110 -137 -194 -186 -46 -11 -6 0 0 0
-8 -8 -30 -23 -29 -23 -32 -53 -48 -90 -102 -106 -109 -101 -117 -116 -131 -137 -149 -168 -138 -133 -83 -51 -75 -45 -35 -98 -28 -1 0 0
-2 -34 -7 -4 -24 -46 -47 -61 -88 -103 -128 -167 -135 -112 -122 -107 -143 -141 -138 -130 -146 -138 -115 -95 -52 -11 -15 -8 -57 -52 -12 -51
0 -11 -4 -6 -28 -29 -42 -66 -88 -102 -104 -91 -108 -94 -78 -72 -74 -126 -50 -64 -74 -78 -103 -97 -61 -19 -21 -10 -4 -4 0 0
Wind_Speed
nan nan nan nan nan nan nan nan 7 nan 8 nan nan nan nan nan 7 14 10 15 14 19 19 24 28 28 25 25 26 26 27 19
nan nan nan nan nan nan nan nan nan 10 nan 8 nan nan 12 nan 3 12 10 12 17 16 21 23 25 28 26 24 23 21 20 21
nan nan nan nan nan nan nan nan nan 8 5 17 21 nan nan nan nan 15 24 18 19 21 24 22 23 28 29 31 30 25 17 18
nan nan nan nan nan nan nan nan nan 13 nan nan nan nan nan nan nan 34 18 20 18 20 18 19 22 24 27 29 28 27 26 19
nan nan nan nan nan nan nan nan 5 15 17 nan nan nan nan nan nan 29 20 17 18 17 14 15 19 21 26 31 31 30 26 21
nan nan nan nan nan nan nan nan nan 10 7 nan nan nan nan nan nan nan 21 20 16 14 11 14 19 25 27 28 28 27 26 22
nan nan nan nan nan nan nan nan nan nan 11 nan nan nan nan nan nan nan 15 18 15 12 13 16 20 23 27 26 30 28 24 21
nan nan nan nan nan nan nan nan nan nan nan nan 32 35 32 nan 26 20 17 15 17 10 10 15 19 22 26 27 29 30 25 25
nan nan nan nan nan nan nan nan nan nan nan nan nan nan 44 34 22 21 17 15 13 9 9 13 18 21 25 27 27 27 27 24
16 nan nan nan nan nan nan nan nan nan nan nan nan 44 30 30 28 26 25 18 11 10 13 16 17 21 22 27 27 25 23 22
19 16 nan nan nan nan nan nan nan nan nan nan 24 24 28 31 32 32 30 28 21 14 16 19 20 23 22 23 26 28 27 24
23 17 13 nan nan nan nan nan nan nan nan nan 24 11 36 33 35 36 36 34 30 28 23 24 23 21 24 24 26 26 26 26
10 17 17 17 14 nan 11 nan nan nan 16 26 23 36 37 36 33 35 37 37 36 35 32 27 26 25 22 24 24 25 27 29
18 11 14 nan 38 17 27 22 14 35 39 36 39 38 37 36 37 36 37 38 36 37 39 39 34 26 22 22 24 30 31 35
nan 46 54 38 39 43 36 35 38 39 35 35 35 38 37 38 38 38 37 37 37 37 40 40 36 32 25 22 29 28 36 38
nan nan 54 38 37 29 30 27 34 38 42 41 44 41 39 39 38 37 36 34 34 34 34 34 35 34 32 30 27 26 32 34
nan nan 32 38 37 31 31 31 35 36 37 42 42 44 42 41 39 38 35 33 36 34 36 34 34 34 32 31 33 33 39 41
16 36 25 39 36 36 35 36 37 38 39 39 37 40 38 42 38 36 35 34 32 33 32 35 38 42 40 39 37 30 35 33
40 38 32 39 38 36 40 39 39 39 39 37 37 38 40 41 41 38 42 43 42 37 35 35 36 41 42 41 33 32 34 29
Wind_Direction
nan nan nan nan nan nan nan nan 163 nan 194 nan nan nan nan nan 251 326 352 337 325 329 349 352 352 353 357 357 356 3 3 356
nan nan nan nan nan nan nan nan nan 214 nan 232 nan nan 252 nan 345 317 296 291 302 322 337 342 338 339 343 344 349 354 359 353
nan nan nan nan nan nan nan nan nan 238 252 290 270 nan nan nan nan 273 258 279 292 304 316 325 326 332 336 341 342 342 342 343
nan nan nan nan nan nan nan nan nan 171 nan nan nan nan nan nan nan 260 252 273 280 297 316 319 329 334 334 332 332 333 334 329
nan nan nan nan nan nan nan nan 205 215 206 nan nan nan nan nan nan 276 266 269 279 298 315 326 326 329 335 334 337 336 335 333
nan nan nan nan nan nan nan nan nan 226 163 nan nan nan nan nan nan nan 263 268 277 292 308 316 328 340 348 349 355 346 343 340
nan nan nan nan nan nan nan nan nan nan 229 nan nan nan nan nan nan nan 256 288 288 301 311 320 333 348 357 354 358 355 345 338
nan nan nan nan nan nan nan nan nan nan nan nan 257 245 253 nan 235 241 241 268 286 291 315 332 337 347 356 357 354 358 354 353
nan nan nan nan nan nan nan nan nan nan nan nan nan nan 246 247 249 244 237 227 259 281 297 320 330 338 346 355 351 354 1 350
220 nan nan nan nan nan nan nan nan nan nan nan nan 249 247 234 233 228 233 230 237 219 284 302 317 326 334 340 341 342 346 352
219 236 nan nan nan nan nan nan nan nan nan nan 265 268 246 235 239 242 240 234 233 244 260 277 301 313 321 327 327 330 333 334
152 189 199 nan nan nan nan nan nan nan nan nan 259 243 256 241 241 239 242 240 236 242 250 275 287 304 313 318 319 320 315 319
259 186 196 151 206 nan 256 nan nan nan 237 231 233 232 253 261 252 253 248 245 245 248 253 259 276 292 310 312 315 306 304 307
168 219 153 nan 252 211 229 214 209 238 240 250 252 259 258 261 262 259 257 256 253 255 256 258 264 273 287 295 292 301 303 299
nan 178 165 209 219 226 236 233 221 233 244 254 258 258 261 262 261 261 259 258 257 254 260 258 254 252 268 275 274 290 296 301
nan nan 154 220 230 226 232 236 229 238 239 242 254 257 260 260 263 263 262 259 262 266 269 265 261 256 249 259 269 280 285 287
nan nan 119 212 226 223 221 222 227 231 235 241 245 253 254 259 258 258 261 266 265 264 265 263 260 259 262 268 279 277 276 275
245 213 179 220 224 223 223 222 225 234 241 243 248 252 254 256 257 256 259 266 272 271 268 262 258 265 267 272 287 285 287 285
221 206 213 223 232 235 237 238 242 245 249 254 253 256 259 260 257 258 263 263 259 258 257 261 265 266 265 275 280 290 295 289